Lapse_Rate
9.1 9.0 8.8 8.8 8.9 8.8 8.6 8.6 8.5 8.9 9.0 8.9 9.0 8.8 8.8 8.6 8.4 8.0 7.4 8.0 8.2 7.8 7.8 7.9 7.8 7.8 7.4 7.4 7.5 7.5 7.4 7.4 7.0 7.2 8.0 7.9 8.1 7.3 7.9 8.3 8.1 8.2 8.0
9.1 9.0 8.6 8.9 8.9 8.6 8.7 8.6 9.1 8.5 9.2 9.2 9.1 8.9 9.1 8.8 8.2 7.2 6.7 7.5 8.3 8.0 7.8 7.7 7.7 8.4 7.7 7.8 7.3 7.4 7.5 7.4 7.4 7.2 7.4 7.4 7.3 6.9 6.9 6.5 7.4 8.5 8.4
9.3 8.9 8.5 8.6 8.7 8.5 8.6 8.6 9.1 8.9 8.9 9.0 8.9 8.7 8.7 8.5 7.8 6.4 6.8 7.0 8.1 8.2 7.6 7.7 6.9 7.8 7.4 7.5 7.2 7.4 7.3 7.7 7.4 7.2 6.9 7.1 6.8 5.9 5.7 6.4 6.2 6.2 7.8
9.3 9.0 8.4 8.5 8.6 8.6 8.8 8.6 8.6 9.1 8.6 8.5 8.6 8.7 8.3 8.7 7.2 6.6 6.6 6.5 7.0 7.4 7.9 8.0 8.0 6.6 7.0 7.1 7.5 7.4 7.4 7.2 7.3 7.1 7.1 6.9 7.0 6.6 5.5 4.6 5.5 6.5 5.9
9.2 9.0 8.6 8.7 8.8 8.8 8.6 8.5 8.5 8.5 8.7 8.8 8.6 8.3 7.8 8.5 7.4 6.2 6.2 6.5 7.3 7.7 7.5 8.1 7.8 7.9 8.5 7.8 7.2 6.9 7.0 6.9 6.9 7.0 6.9 7.0 7.1 6.7 6.0 4.4 6.3 7.1 7.1
9.1 9.0 9.2 9.2 9.2 8.7 8.6 8.4 8.5 8.3 8.2 7.9 7.9 7.8 7.5 9.1 6.9 7.0 6.9 6.5 8.0 7.4 7.7 8.0 8.1 7.6 7.1 7.8 7.1 7.5 6.9 6.9 6.9 6.8 6.8 6.9 6.8 6.9 5.4 4.2 6.4 6.5 5.8
9.2 9.4 9.4 9.4 9.3 8.8 9.0 9.0 8.5 7.8 7.8 7.6 7.6 7.6 7.6 6.1 6.8 7.0 6.7 7.6 7.7 7.4 7.6 7.5 7.5 8.0 7.3 6.5 6.5 6.8 6.6 6.8 5.9 6.4 6.3 6.3 6.3 6.2 6.2 6.5 6.6 6.7 6.5
9.2 9.3 9.5 9.4 9.3 9.1 8.9 8.7 8.0 8.2 8.1 8.1 7.9 7.7 7.7 7.7 7.2 6.8 6.4 7.3 7.2 7.3 7.2 7.1 7.2 7.1 7.0 6.7 6.6 6.3 6.5 6.4 6.6 6.6 6.0 5.9 6.8 7.0 6.9 6.9 6.6 6.9 6.8
9.2 9.3 9.5 9.4 9.3 9.0 8.8 8.2 8.2 8.3 8.4 8.4 8.7 8.4 7.9 8.1 7.4 7.0 6.3 6.6 6.8 6.9 7.5 7.2 7.0 6.9 7.0 7.2 6.7 6.5 6.4 6.4 7.7 7.7 6.8 6.3 7.3 7.5 7.1 5.0 5.6 6.6 6.5
9.3 9.4 9.5 9.5 9.2 8.7 8.3 8.1 8.3 8.4 8.8 8.9 8.8 8.7 9.0 8.1 7.8 6.7 7.3 7.4 7.2 6.8 7.4 7.6 7.6 6.9 7.0 6.7 6.3 6.0 6.0 5.8 5.7 5.7 6.6 6.0 6.5 6.5 6.3 5.3 5.9 5.8 6.5
9.5 9.3 9.5 9.4 8.6 8.6 8.4 8.5 8.4 7.7 7.8 7.9 7.7 8.3 8.2 8.0 6.7 6.1 6.7 7.8 7.3 6.6 6.8 6.6 6.8 6.9 6.7 6.3 6.1 5.6 5.5 5.2 5.6 5.5 6.5 6.1 6.6 6.8 6.6 6.4 6.3 6.2 6.2
8.7 8.9 8.9 8.7 8.9 9.3 8.0 7.8 8.0 6.7 6.5 6.7 6.5 6.7 6.9 6.7 6.5 5.6 6.1 8.0 7.4 6.0 6.1 6.5 6.7 6.7 6.4 6.0 5.6 5.4 5.4 5.4 5.8 6.0 6.3 6.2 6.1 6.1 6.1 5.7 6.3 6.3 5.6
7.6 5.8 7.3 8.8 9.0 8.9 7.6 7.6 7.3 6.5 6.5 6.5 6.3 6.1 5.7 5.9 5.3 5.4 5.7 7.3 7.4 5.7 6.0 6.8 6.9 6.6 6.2 5.8 5.7 5.4 5.2 5.5 5.8 6.4 6.3 6.4 6.0 5.8 6.0 5.3 5.1 5.1 4.9
5.3 8.2 8.3 8.4 8.3 8.6 8.1 7.1 7.1 6.5 6.5 6.9 6.4 6.0 5.5 5.5 5.4 5.9 6.4 7.5 6.9 5.7 6.1 6.4 6.5 6.3 6.5 6.5 6.0 5.9 5.6 5.5 5.6 6.0 6.0 5.7 5.8 5.9 5.6 5.4 4.9 4.4 3.9
9.2 9.1 8.0 8.9 8.6 8.5 7.8 6.4 6.5 6.8 5.6 5.4 5.2 5.9 6.0 5.2 5.9 7.5 6.9 8.0 7.8 7.1 6.8 6.6 6.0 6.2 6.3 6.3 6.5 6.3 6.2 5.9 5.7 5.6 5.8 5.9 5.9 5.2 4.9 4.5 4.4 4.0 3.7
8.8 8.6 7.7 8.5 8.3 8.7 8.0 7.8 5.9 5.7 4.9 4.9 5.6 5.5 6.4 7.2 6.9 6.8 5.8 6.8 7.1 7.5 6.8 6.4 6.3 6.3 6.5 6.4 6.5 6.6 6.5 6.3 5.9 5.7 5.6 5.7 5.9 5.7 5.2 4.6 4.0 3.6 3.5
8.9 8.5 8.7 8.5 7.9 7.8 7.7 7.7 7.6 7.5 6.7 5.5 6.3 7.5 7.7 8.2 7.3 6.5 5.5 6.1 6.8 5.6 6.5 6.7 6.5 6.3 6.4 6.2 6.2 6.5 6.5 6.1 5.9 5.8 5.7 5.6 5.6 5.3 4.8 4.5 4.0 3.3 2.9
8.0 5.7 7.8 7.8 7.6 7.6 8.1 7.6 7.7 7.6 7.5 7.8 6.8 7.0 7.3 8.0 7.3 6.6 5.4 4.9 4.7 5.1 5.9 6.8 6.3 5.8 5.8 5.8 5.6 5.9 6.0 6.0 6.0 6.1 6.0 5.6 5.5 5.0 4.9 4.2 3.7 3.0 2.6
8.2 6.7 7.2 7.9 7.6 7.2 7.8 8.0 8.2 8.4 8.4 8.4 7.8 6.7 6.8 8.3 7.3 6.6 5.5 4.9 5.7 5.4 5.4 5.4 5.3 5.3 4.7 4.8 5.0 5.1 5.1 5.2 5.6 6.0 6.0 5.9 5.6 5.5 5.2 4.4 3.8 2.7 2.3
6.7 6.0 6.9 8.0 7.9 7.6 8.2 8.3 8.3 8.5 8.6 8.6 8.3 7.9 7.5 7.5 6.3 5.8 5.3 4.8 4.9 5.2 5.2 4.9 4.5 4.3 4.1 4.0 4.0 4.3 4.3 4.2 4.7 5.5 6.0 5.8 5.6 5.6 5.5 4.9 4.1 3.1 2.7
8.4 8.3 6.1 8.0 8.3 8.1 8.3 8.5 7.9 8.5 8.6 8.5 8.5 7.7 6.2 7.5 7.4 6.6 5.6 5.2 5.0 4.9 4.5 4.5 4.4 3.9 3.4 3.3 3.5 3.7 3.7 4.3 4.3 4.9 5.8 5.8 5.5 5.4 5.5 5.3 4.7 3.6 2.9
8.3 8.2 8.0 7.4 8.1 8.3 8.3 8.6 8.1 8.5 8.5 8.2 8.0 8.3 6.3 7.7 6.6 6.4 5.6 4.9 4.9 5.0 4.6 4.3 4.0 3.8 3.6 2.9 2.5 2.7 3.1 4.1 4.6 4.9 5.7 5.5 5.4 5.2 5.0 5.0 4.9 3.9 3.3
8.3 8.4 8.4 8.0 7.5 7.6 7.9 8.2 8.3 8.1 8.0 7.4 6.6 8.0 7.8 7.5 6.2 6.6 5.6 4.8 4.9 4.6 4.2 3.9 3.4 3.2 3.0 2.6 2.0 1.9 2.6 3.8 4.4 4.6 5.7 5.6 5.6 5.5 5.3 5.2 4.8 4.5 4.1
8.1 8.5 8.5 8.2 7.3 7.1 6.3 6.9 7.5 7.0 6.3 7.2 6.5 6.4 6.3 6.6 5.3 6.0 5.4 4.6 4.4 4.6 4.1 3.6 3.2 3.1 2.4 1.8 1.3 1.1 1.5 3.1 3.7 4.0 4.4 4.7 4.9 5.2 5.2 5.5 5.4 5.2 4.8
8.0 7.6 7.7 7.8 6.0 5.5 4.8 5.2 5.6 6.3 5.8 6.3 5.9 6.1 6.0 5.7 5.1 4.9 4.7 4.4 4.1 3.9 4.1 3.6 3.1 2.7 1.7 1.1 0.4 0.2 0.3 2.2 3.0 3.8 4.1 4.2 4.3 4.7 5.4 5.4 5.9 5.9 5.3
5.8 5.8 6.0 5.6 4.5 4.3 4.6 5.1 5.1 5.1 4.9 5.0 5.2 5.4 5.4 5.3 5.4 5.0 4.3 4.1 3.9 3.9 3.8 3.7 3.0 2.4 1.3 0.8 0.1 -0.2 -0.5 1.4 2.3 3.0 3.7 4.0 3.7 4.0 4.6 5.1 5.1 5.2 5.8
Wind_Speed
5 5 6 6 7 7 7 6 7 11 12 9 10 9 9 9 10 5 6 9 11 12 13 12 11 9 6 6 6 6 7 7 8 7 7 7 6 6 7 10 12 15 15
6 5 6 7 7 7 7 7 11 6 12 12 11 8 9 9 8 8 11 12 12 14 14 13 12 8 9 7 5 7 7 7 7 10 8 6 7 5 5 6 6 14 14
7 6 8 7 7 7 7 7 10 9 10 11 9 8 8 9 6 8 11 13 13 14 13 12 11 10 8 6 5 6 5 6 7 7 8 6 6 4 5 5 6 5 12
7 8 7 6 6 7 7 7 7 11 8 7 8 8 7 10 9 10 13 14 14 13 13 11 10 8 7 6 7 7 7 7 7 7 7 6 4 6 2 2 3 2 4
7 8 6 6 6 7 7 7 8 8 8 9 8 7 6 7 7 11 13 15 14 14 11 11 9 11 15 9 6 7 8 7 7 7 7 5 5 2 1 2 2 5 7
7 7 8 8 9 8 8 8 9 9 8 7 7 7 7 7 16 22 21 14 14 12 12 12 10 11 8 17 13 19 15 10 10 7 7 6 6 3 2 3 3 2 3
7 8 9 9 10 9 10 10 9 8 8 7 7 7 7 7 18 26 28 12 12 12 13 11 9 8 11 9 17 19 17 18 14 11 9 8 5 3 2 4 3 3 3
8 9 9 9 10 10 10 10 9 9 9 9 9 8 8 7 21 28 27 15 13 14 13 11 11 10 9 14 12 11 10 9 9 6 9 8 6 5 4 3 5 6 5
9 9 10 10 11 10 11 9 9 10 10 10 11 11 10 10 25 28 23 14 14 15 12 10 11 10 18 22 11 10 10 8 9 10 10 15 13 10 6 2 5 4 5
8 9 10 10 10 9 10 10 9 11 11 10 13 11 15 13 23 30 24 11 14 12 12 13 19 17 22 19 11 9 8 7 7 5 3 6 5 6 11 5 4 5 5
9 10 8 8 10 8 8 9 10 12 12 12 13 12 13 14 16 30 31 13 11 11 10 11 10 23 22 21 19 9 10 9 5 3 3 2 2 4 3 6 6 5 2
7 7 9 6 8 7 7 9 10 12 12 12 12 11 10 13 23 27 31 27 24 12 11 10 12 25 23 20 16 21 16 8 4 2 2 1 1 2 3 2 2 3 3
7 7 7 7 8 7 6 7 7 9 9 9 10 10 11 11 11 28 29 27 24 13 12 17 22 22 20 15 20 19 12 7 5 3 2 1 1 0 1 2 3 6 6
4 5 8 6 7 7 5 4 5 5 6 7 9 9 10 11 12 13 13 11 21 16 15 11 13 15 15 14 12 12 9 8 6 6 3 2 1 0 0 1 1 2 1
8 7 7 6 8 7 5 3 3 3 2 4 5 7 9 11 11 19 19 13 13 14 12 10 12 12 13 12 11 11 10 10 9 7 7 5 4 2 2 2 1 2 3
8 7 4 6 6 7 5 4 3 6 3 4 10 7 8 18 22 26 30 26 25 22 11 11 12 12 12 12 12 11 11 12 9 9 8 7 6 5 4 4 3 3 4
7 7 5 6 6 6 5 5 7 5 6 5 8 17 25 24 21 26 29 25 24 20 12 12 12 12 11 12 12 11 11 10 11 10 9 9 8 6 7 6 5 4 5
9 7 6 4 5 5 6 5 5 6 7 6 3 20 24 21 22 25 28 20 13 15 12 12 12 12 12 12 12 12 12 11 11 10 9 9 9 8 7 7 7 6 5
5 5 5 4 4 6 5 6 6 7 8 7 7 14 21 20 21 23 25 11 12 12 13 13 12 13 12 12 12 12 12 12 12 11 11 9 9 8 8 7 7 9 8
4 5 5 4 5 6 6 6 8 8 8 9 8 10 11 12 11 12 12 11 11 11 11 12 12 12 12 12 12 12 12 12 12 11 11 10 9 8 8 8 7 6 7
4 4 6 7 5 6 7 7 8 8 8 8 8 9 11 10 11 11 11 11 11 11 12 11 11 12 12 12 12 12 12 11 12 12 10 10 10 9 9 8 6 7 7
4 4 4 6 6 6 7 7 7 8 9 9 9 9 9 9 10 10 11 10 11 16 19 16 10 14 16 13 12 11 12 12 12 12 11 10 10 10 10 9 9 8 8
5 5 5 6 6 7 8 8 8 8 9 9 10 10 10 9 10 10 10 12 17 18 21 20 19 19 23 22 23 20 11 12 13 14 10 10 10 10 9 9 10 9 9
5 5 6 6 7 7 8 8 8 9 9 8 9 9 9 10 10 11 13 18 18 19 20 21 22 24 24 24 24 24 24 24 23 21 20 11 10 11 10 9 9 10 8
6 6 7 7 8 7 7 8 8 9 9 9 8 8 8 7 8 12 16 18 19 19 20 21 23 24 27 28 29 29 29 31 27 23 20 18 13 14 11 10 10 8 11
7 7 6 6 7 7 7 7 7 7 7 7 7 7 7 7 10 13 15 16 15 18 20 20 24 26 28 27 31 32 32 31 29 29 22 19 11 11 9 10 14 9 11
Wind_Direction
26 21 19 3 359 2 3 355 357 348 345 342 343 342 337 341 335 338 360 332 317 306 304 302 298 291 283 278 275 273 276 274 275 288 279 282 288 280 285 291 296 296 285
20 14 30 8 4 2 359 354 354 347 340 343 345 339 341 338 322 26 351 328 317 311 305 302 298 294 295 283 282 287 287 289 290 293 288 286 279 263 259 267 277 282 287
16 15 31 9 1 1 355 349 348 346 336 339 335 342 345 330 16 7 339 325 316 308 301 301 296 295 297 297 300 288 292 293 290 287 287 276 266 232 253 258 252 256 276
16 20 26 5 353 2 350 342 344 340 330 334 343 341 345 334 26 350 336 326 318 308 304 300 302 291 295 296 296 295 291 290 289 285 281 281 276 254 191 228 287 275 281
21 22 13 360 354 2 343 341 345 336 334 341 337 340 339 354 10 350 339 329 319 311 316 313 312 305 313 318 303 286 283 285 283 284 280 280 282 328 219 224 232 280 278
23 15 12 360 357 0 346 348 345 337 334 335 340 340 344 16 5 355 352 331 328 329 333 329 328 335 329 315 331 312 295 284 274 267 269 276 283 266 224 217 237 270 289
20 12 12 3 357 355 352 347 345 337 335 339 348 342 356 51 10 4 355 338 339 333 332 328 329 336 330 336 313 304 295 287 269 260 248 249 260 268 271 296 258 250 259
19 12 5 2 358 355 352 345 343 340 344 350 351 345 5 45 19 10 355 346 340 337 334 329 331 333 330 321 312 301 294 286 277 261 234 233 247 250 279 286 292 294 278
16 6 3 3 357 353 353 350 343 353 349 354 357 351 9 7 22 8 357 349 342 339 332 334 335 321 320 325 315 304 296 288 290 279 241 221 234 231 243 326 283 293 301
6 0 7 359 350 3 353 359 350 4 354 359 357 356 8 4 12 3 359 351 343 340 336 338 336 334 333 332 327 307 300 295 293 292 320 240 225 236 236 223 262 280 299
11 5 353 5 340 19 7 2 10 6 358 1 356 353 1 1 4 359 359 355 348 340 338 334 336 338 340 336 334 325 327 323 312 251 264 188 196 235 223 214 239 258 277
6 360 338 23 341 9 27 13 16 8 359 358 353 353 355 354 359 354 356 355 358 345 340 333 341 343 340 339 341 345 351 355 23 10 80 65 355 17 39 10 330 330 299
346 319 305 25 346 5 39 21 18 7 359 355 355 353 351 351 353 352 353 353 -0 351 343 343 346 348 347 350 351 356 358 8 9 27 50 50 27 318 275 282 274 266 269
278 16 2 10 0 6 35 28 20 358 354 355 357 358 352 350 353 354 350 349 0 353 347 349 354 356 360 0 1 4 6 11 14 15 13 11 333 331 86 281 272 280 288
26 20 16 5 2 7 42 31 358 341 0 346 345 345 350 347 345 352 357 356 2 355 356 2 5 6 5 3 3 5 7 13 15 12 17 19 33 14 5 334 4 340 50
25 355 26 11 9 358 5 358 264 278 266 284 306 313 344 345 349 2 1 1 9 3 12 10 7 5 3 359 360 4 9 10 9 14 17 18 18 18 25 12 20 37 41
20 7 10 14 12 346 357 356 359 358 286 254 336 4 354 348 0 10 4 4 11 12 18 12 7 2 1 0 0 3 6 5 7 15 14 11 16 20 24 27 25 21 30
25 7 356 3 15 350 357 2 2 7 3 10 52 7 355 354 11 13 8 5 11 17 15 11 7 2 0 1 0 1 3 8 8 14 17 15 13 13 25 28 27 26 28
40 22 341 349 14 0 357 6 7 11 8 7 16 7 358 1 7 13 15 15 9 10 9 9 8 4 2 0 360 1 3 4 5 6 14 19 15 16 23 26 29 26 31
111 40 351 2 19 10 356 14 12 13 11 11 22 11 1 3 10 11 12 10 9 9 6 6 6 4 4 3 2 1 3 5 5 3 8 9 13 19 23 25 31 32 34
23 22 31 10 25 17 3 18 17 10 15 15 14 15 8 13 10 9 8 8 7 5 3 4 5 4 3 3 4 3 2 360 0 1 6 8 11 16 20 22 31 39 35
30 7 49 40 4 22 11 16 23 15 20 17 8 7 7 22 14 10 10 6 5 5 4 4 5 6 5 3 1 6 359 359 357 355 4 8 13 16 16 21 29 38 39
29 22 29 52 19 25 15 20 20 23 20 22 10 8 7 21 14 9 11 3 3 6 6 6 5 8 7 8 6 5 2 357 352 351 2 8 14 17 19 23 24 33 39
32 25 24 45 40 31 24 16 15 28 13 18 19 14 7 18 9 8 11 3 1 5 8 9 7 8 6 10 9 3 360 5 5 3 7 10 15 14 19 25 25 23 34
42 28 33 39 41 40 27 24 16 20 16 15 15 12 12 8 3 10 10 10 6 1 5 10 8 8 7 8 8 4 0 8 15 16 16 15 20 20 23 22 25 30 32
45 38 38 40 47 34 28 27 24 18 16 10 8 7 8 4 4 5 2 5 6 10 7 11 8 9 10 9 6 7 8 10 15 20 25 28 21 20 19 22 23 26 32